Theta_e
315 316 315 316 316 316 316 314 316 316 317 318 318 319 318 316 314 314 315 311 318 326 328 315 313 318 322 322 327 332 341 344 346 344 342 333 332 326 325 330 331 331 329 330 340
315 315 315 315 316 315 314 315 316 317 317 317 317 318 318 315 315 316 313 324 326 324 322 320 316 316 321 323 326 334 337 340 339 340 337 335 328 323 328 330 331 334 330 334 342
315 315 315 315 315 315 315 314 316 316 317 317 316 317 317 314 314 307 320 325 326 315 318 322 322 315 320 324 325 330 336 334 338 336 334 335 328 325 329 331 329 334 330 337 341
315 314 315 314 315 314 314 311 311 315 316 316 316 316 315 315 305 313 311 312 311 312 323 323 324 315 320 325 326 333 332 335 335 330 330 332 326 322 329 329 325 330 329 334 340
314 315 315 315 313 311 310 310 310 311 313 315 315 316 314 313 312 309 311 313 314 312 323 318 315 315 322 323 325 333 333 334 332 330 328 327 326 324 325 322 324 329 329 332 338
313 314 314 314 310 309 310 310 310 311 312 314 316 315 314 314 311 310 311 313 315 313 314 318 314 315 319 323 325 327 331 336 335 329 330 327 327 323 322 321 331 330 330 330 332
313 314 314 311 310 310 309 311 314 315 316 318 315 316 315 314 311 311 311 313 315 314 312 314 319 315 314 323 325 327 333 332 333 328 330 328 328 326 325 323 334 331 329 329 329
312 313 312 311 310 309 315 316 316 315 316 319 316 316 315 315 312 312 313 314 315 314 314 313 316 315 313 318 323 331 331 335 331 327 326 329 333 326 328 327 333 333 332 331 331
311 310 310 310 308 315 318 316 315 316 315 315 316 314 315 314 314 315 315 315 315 314 314 315 315 316 315 321 325 327 332 331 330 325 328 329 330 325 329 327 329 331 330 332 332
310 310 309 309 308 315 316 316 315 316 317 317 316 315 313 314 315 316 315 314 314 313 313 313 318 318 317 322 331 329 330 327 328 327 329 331 331 329 330 328 326 325 326 330 332
308 309 309 308 307 314 315 315 311 312 313 315 315 315 314 315 316 315 316 314 312 312 313 314 317 322 319 322 324 327 329 328 326 327 330 331 331 330 331 332 331 323 320 320 320
308 308 307 307 307 313 315 313 313 312 314 313 313 314 315 315 316 314 314 312 312 312 314 316 318 316 320 321 323 327 331 330 327 330 327 329 331 330 329 331 330 330 328 323 315
307 307 307 307 310 314 315 316 314 314 314 316 315 316 317 315 317 316 312 313 314 316 317 318 318 318 323 325 330 330 331 330 331 328 324 331 330 329 328 327 325 319 320 317 313
306 307 308 307 312 311 315 315 312 313 315 316 318 317 317 317 317 316 313 315 318 320 319 319 319 324 327 328 330 330 329 328 332 332 335 327 335 326 323 322 317 314 312 313 312
305 306 307 308 309 311 314 313 313 313 316 315 318 316 316 316 316 317 316 317 320 320 321 319 325 325 328 327 329 328 330 329 329 327 328 324 330 325 314 316 315 312 312 312 311
305 306 306 310 309 309 312 311 315 315 318 317 318 318 318 317 319 318 316 317 318 322 322 322 322 324 324 323 326 324 325 324 321 323 331 329 329 329 316 315 314 311 311 310 308
305 306 307 307 309 308 310 312 316 317 314 316 318 318 319 317 319 316 316 320 323 326 324 323 323 322 324 324 322 325 326 327 331 330 333 317 324 330 315 311 312 311 310 307 305
305 306 307 307 308 309 311 311 319 317 316 315 318 318 319 319 320 319 315 320 321 324 326 326 325 321 319 323 325 326 326 327 333 329 328 318 326 323 311 309 308 307 306 305 305
306 307 307 310 313 312 306 312 316 317 315 317 316 318 317 319 319 317 316 316 314 323 323 323 324 319 320 320 322 324 328 320 314 311 317 317 312 310 310 310 309 307 306 305 304
308 308 309 313 314 312 308 314 313 316 314 317 319 318 320 318 318 316 317 315 313 314 316 321 322 318 324 318 316 321 320 330 324 321 316 311 313 315 313 311 309 307 306 304 302
309 304 311 312 313 305 309 310 313 314 313 316 317 318 318 319 319 317 317 317 313 313 311 313 318 316 321 319 321 316 317 316 322 319 319 315 314 308 309 310 309 307 304 303 302
306 303 312 310 308 303 310 314 314 313 311 312 314 314 316 317 318 316 318 318 311 311 314 311 313 313 315 310 310 315 315 314 319 315 308 311 313 306 304 307 308 306 304 303 302
305 306 308 310 307 305 306 310 311 311 311 312 313 313 314 313 314 314 317 313 310 312 312 310 313 313 312 311 310 318 316 311 310 309 309 312 312 305 307 307 307 306 304 302 302
302 304 304 303 302 308 309 309 310 309 309 310 310 310 310 310 311 313 313 314 310 310 315 310 312 311 312 312 309 309 311 311 310 311 309 309 311 309 308 308 306 305 304 302 302
301 302 304 308 306 307 309 309 309 311 310 308 310 308 309 310 309 310 311 310 310 312 308 307 311 309 308 308 308 308 308 309 310 310 312 312 309 308 306 306 306 304 303 302 301
303 304 303 304 305 308 308 308 309 310 311 311 307 306 305 309 309 308 308 309 310 308 308 305 308 308 309 310 311 311 309 307 308 308 307 308 308 305 304 303 305 304 303 303 301
305 306 304 304 303 306 305 308 311 309 308 308 306 306 305 306 306 305 304 305 306 308 306 305 306 308 309 312 313 315 313 310 308 307 307 308 307 306 305 305 305 304 303 302 300
Wind_Speed
7 9 8 10 12 11 13 10 11 14 16 18 19 22 25 27 33 28 6 3 8 16 13 12 6 4 1 3 3 4 2 4 6 6 5 3 5 2 3 7 3 6 6 2 33
9 9 10 10 12 12 12 13 12 14 15 17 18 21 26 30 30 15 5 10 12 14 9 4 3 7 0 3 3 4 5 9 5 5 3 3 5 8 6 5 4 3 5 22 30
11 11 11 11 10 12 12 11 11 12 14 16 18 21 24 26 5 3 1 2 20 16 9 2 4 1 2 2 4 5 6 5 5 5 1 3 2 5 7 4 8 12 10 16 24
12 11 11 11 11 11 12 12 11 11 13 14 17 20 25 9 3 2 7 10 15 13 6 1 4 1 3 5 4 3 7 5 4 3 0 3 2 4 6 7 4 10 19 15 17
12 13 13 14 13 13 13 13 14 13 13 12 13 16 11 5 8 3 11 13 13 8 3 1 2 3 4 4 3 5 3 6 3 4 4 1 6 6 7 6 2 11 17 19 17
11 12 13 14 13 13 13 14 15 15 14 10 9 10 4 5 4 7 12 20 13 4 2 2 4 4 5 4 7 3 6 4 4 3 3 3 3 1 0 5 5 12 16 14 16
12 13 13 13 15 16 18 20 21 20 16 10 5 4 4 13 7 17 17 17 16 9 2 5 6 2 6 4 4 4 4 1 5 5 5 4 3 4 3 2 4 5 7 10 11
13 14 13 13 15 17 20 24 21 15 12 9 3 0 7 9 13 19 15 13 9 7 13 10 4 3 5 7 5 6 6 5 4 8 3 6 6 3 2 4 5 3 5 7 8
13 13 12 13 14 17 20 22 11 7 5 4 5 5 10 10 9 13 11 8 10 8 10 3 6 5 3 3 3 3 6 5 2 5 4 4 4 3 1 5 7 8 8 8 7
13 13 13 13 15 16 20 18 8 1 5 5 4 0 6 5 9 19 11 11 5 1 1 4 3 3 2 4 9 3 5 3 6 6 2 2 3 4 3 3 8 8 8 7 10
12 13 14 13 15 15 21 7 7 3 2 5 3 4 10 13 13 5 7 2 2 1 4 4 3 6 7 6 7 2 5 5 3 5 5 7 5 8 7 5 7 8 8 6 6
12 12 13 14 16 11 9 5 2 3 7 6 6 7 16 7 5 5 4 2 2 4 2 2 7 10 11 11 11 9 5 4 2 3 3 5 9 8 7 6 6 7 6 7 4
13 13 13 14 13 5 4 3 6 4 2 7 5 5 5 7 5 6 8 2 3 2 6 7 9 11 8 8 10 8 4 5 4 3 3 4 5 4 6 5 4 4 6 5 9
11 12 14 15 4 10 3 2 11 2 4 6 4 4 2 3 5 6 8 4 1 5 4 5 4 7 4 7 8 8 6 5 6 4 3 1 4 4 3 7 4 3 2 5 4
12 10 11 11 11 4 3 10 6 3 5 7 5 3 7 4 5 2 4 3 5 5 1 4 3 4 4 4 6 6 1 5 4 4 2 1 1 6 1 6 7 6 5 2 2
13 12 11 6 7 5 11 11 1 5 4 7 4 7 7 3 4 5 2 4 1 4 1 4 2 3 1 3 2 8 6 7 5 3 1 5 5 5 5 5 0 3 5 0 4
14 13 13 11 3 8 15 2 4 5 4 8 6 5 4 5 7 5 3 3 2 7 6 4 3 4 2 4 5 4 5 3 2 1 4 1 5 10 2 2 3 8 6 2 3
15 14 12 12 13 14 8 4 1 1 4 5 4 8 4 6 4 6 5 2 2 3 2 6 2 5 6 1 4 2 6 4 5 4 4 2 5 5 2 3 3 6 4 3 3
15 9 7 6 6 4 4 2 5 5 3 5 8 4 5 3 1 7 4 2 3 4 5 8 5 5 1 2 3 3 2 3 4 2 2 2 5 3 2 3 4 5 5 3 3
11 7 3 6 4 4 4 5 3 3 2 2 1 1 4 6 7 6 5 1 3 1 3 6 3 1 2 3 1 4 6 3 3 2 2 3 4 5 4 6 4 4 5 4 4
4 3 9 4 1 4 2 5 5 5 4 5 5 3 5 4 2 4 5 3 4 6 2 6 2 3 8 1 4 2 1 6 4 3 2 2 5 5 4 8 9 8 7 6 6
3 2 1 4 3 1 1 2 6 5 2 5 3 5 4 2 4 3 3 3 4 1 2 3 3 3 4 3 1 1 2 5 4 5 2 2 5 0 5 7 9 9 7 5 5
2 2 3 2 0 2 5 4 3 4 4 3 4 4 3 2 3 4 5 2 4 4 3 2 0 2 3 3 4 3 3 3 4 3 4 5 5 2 2 5 7 9 7 7 6
2 2 3 3 1 3 2 4 5 5 4 4 4 2 3 2 3 5 4 4 3 2 4 3 1 4 4 3 2 4 4 4 4 3 5 6 5 3 3 6 6 6 7 8 6
3 2 2 2 2 2 0 2 4 4 4 5 4 5 4 3 4 2 3 6 2 5 3 2 2 2 5 5 3 3 5 5 7 4 5 3 6 6 6 8 8 7 6 7 7
3 2 2 1 1 2 2 3 1 5 1 5 4 9 6 4 4 5 3 2 2 4 3 2 2 2 3 3 2 4 6 6 4 2 6 1 6 6 2 6 6 7 7 7 7
3 1 3 2 1 2 4 3 2 3 5 5 4 7 7 5 5 6 6 5 5 2 3 2 2 4 4 5 6 5 3 4 4 4 5 5 8 4 2 1 2 5 7 7 7
Wind_Direction
353 357 355 352 350 346 348 344 346 331 340 338 339 335 331 331 324 320 257 224 341 341 308 307 303 318 261 247 173 141 116 201 210 169 233 142 172 155 126 123 197 178 154 208 159
352 353 351 348 350 343 348 341 336 335 337 336 336 333 330 333 325 301 318 98 10 346 342 2 15 355 304 237 205 163 174 209 206 193 202 238 192 173 153 136 199 144 63 136 149
345 343 343 343 342 340 333 328 325 328 329 329 331 333 329 333 322 297 82 236 327 342 336 244 325 275 241 189 210 192 205 208 229 247 302 259 264 207 152 205 200 186 153 156 154
332 334 334 334 331 331 324 317 317 318 322 323 329 334 332 345 7 197 356 322 326 342 353 119 113 289 214 218 219 212 223 179 216 186 17 226 195 219 205 221 210 156 162 158 167
331 332 333 329 327 330 333 331 325 319 311 313 326 338 357 349 254 341 326 332 338 341 8 136 159 180 221 205 237 216 235 189 168 174 157 257 242 237 223 304 55 136 159 171 176
330 329 327 323 336 336 332 326 318 309 303 309 327 339 331 307 277 308 318 320 329 316 173 157 216 249 287 257 190 226 190 199 222 205 176 160 264 187 7 341 112 150 169 167 175
323 321 320 329 332 331 327 324 319 308 295 285 296 329 263 249 291 301 305 304 302 285 226 217 231 156 347 281 312 205 168 305 213 182 206 135 252 226 298 356 113 134 165 155 175
319 320 323 332 334 336 336 330 327 324 297 243 188 199 250 277 303 301 310 297 307 271 234 232 214 196 182 305 313 149 135 204 222 153 189 161 235 240 358 133 166 199 204 156 181
320 321 332 334 339 344 341 332 341 354 42 145 143 125 271 301 287 316 308 260 293 260 228 232 148 194 194 242 294 240 195 179 197 200 126 171 217 210 227 184 196 214 193 187 195
321 326 332 331 338 346 344 330 336 317 40 105 130 128 274 305 312 303 303 270 253 285 177 184 173 164 197 168 216 175 119 111 162 185 122 208 220 278 269 215 221 220 210 212 208
328 328 330 330 334 341 346 352 9 343 22 244 189 219 282 300 299 262 298 167 205 147 191 197 164 201 215 195 254 222 148 146 190 169 135 204 217 227 233 248 246 235 233 233 245
331 332 331 329 330 330 351 60 108 280 314 262 253 256 275 263 309 276 189 188 163 230 230 0 225 210 206 203 237 252 223 175 69 125 128 182 241 236 233 237 221 228 249 248 235
331 331 329 329 341 360 358 68 345 326 283 297 222 223 253 160 254 274 166 171 217 250 213 187 238 212 195 194 210 233 216 160 149 106 69 122 300 202 228 234 242 214 218 220 209
330 331 330 331 346 340 350 27 333 169 44 286 304 282 179 229 280 229 208 165 224 271 200 224 242 208 165 203 191 222 181 143 133 110 192 46 263 267 223 242 228 203 197 171 183
329 326 326 338 310 311 320 325 337 164 26 329 304 307 305 221 307 292 196 133 251 272 142 264 177 193 179 195 161 214 102 128 119 109 120 70 95 266 86 266 235 193 209 184 55
331 323 322 325 311 304 333 324 146 41 317 328 317 328 2 324 289 303 216 45 335 310 354 256 265 72 267 77 21 148 86 50 53 82 334 210 167 271 202 221 57 171 198 348 349
332 324 313 298 272 308 335 58 24 97 6 310 308 348 336 291 312 345 347 28 66 335 1 341 20 347 42 67 33 101 85 40 48 33 215 256 167 238 227 312 236 187 189 12 6
332 320 306 293 288 287 331 47 199 214 262 288 312 325 313 5 306 327 337 15 74 14 355 9 2 15 344 309 166 81 154 152 193 181 212 83 223 253 277 324 45 102 102 54 62
336 323 320 345 342 101 64 27 212 212 228 315 334 358 314 330 305 352 330 324 181 146 85 10 310 330 231 291 132 166 145 120 106 29 59 240 301 300 105 83 94 100 93 93 94
341 330 11 355 103 46 71 247 250 228 313 129 80 63 314 305 360 1 318 326 322 80 132 158 295 292 326 324 166 178 169 105 17 97 278 301 280 244 216 204 167 158 157 147 118
2 33 359 129 357 55 186 250 291 260 231 178 181 263 246 293 288 296 291 310 24 326 55 169 189 8 14 296 204 101 65 63 99 153 181 308 267 215 232 198 187 191 190 165 150
51 13 42 9 40 63 237 253 306 288 307 264 183 195 222 276 296 283 283 272 3 292 242 209 190 239 170 252 251 151 201 129 145 204 234 152 278 20 273 214 173 186 185 178 162
84 273 15 25 239 314 303 294 267 311 310 302 279 202 156 260 308 234 317 287 326 320 347 327 326 32 37 343 360 301 243 125 100 83 190 138 262 40 355 151 186 173 180 185 164
80 359 331 49 35 151 337 284 313 309 270 297 278 329 350 298 186 294 323 302 324 300 327 1 342 167 188 203 162 198 252 166 150 138 170 220 267 277 228 197 191 180 188 182 162
53 243 191 285 319 219 27 285 304 318 328 335 327 28 323 300 316 276 290 317 319 336 360 77 290 294 255 228 212 254 240 192 199 188 176 254 215 265 250 207 199 191 164 154 152
130 130 26 252 290 204 206 249 261 330 270 307 22 329 319 273 237 283 330 306 272 326 343 355 254 311 274 360 337 249 233 218 227 206 279 267 276 227 9 118 166 184 167 175 172
130 145 111 253 148 115 227 224 175 337 275 233 348 330 306 282 288 247 222 250 246 305 306 346 5 22 289 342 321 311 281 202 188 182 167 188 232 183 195 143 151 183 188 182 154